Temperature
20 20 20 20 18 17 19 20 20 20 19 19 19 19 18 18 18 18 18 18 18 18 17 17 17 17 17 17 17 17 17 17 17 18 17 17 17 17 17 17 17 17 17 17 17 17 17 17 17
20 20 20 20 17 18 19 20 20 20 20 20 19 19 18 17 17 18 18 18 18 18 17 17 17 17 17 17 17 17 17 17 17 17 17 17 17 17 17 17 17 17 17 17 17 17 17 17 17
20 20 20 17 18 18 20 20 20 20 20 20 19 18 18 17 18 18 18 18 18 18 17 17 17 17 17 17 17 17 17 17 17 17 17 17 17 17 17 17 17 17 17 17 17 17 17 17 17
20 20 20 17 19 19 20 20 20 20 20 20 19 18 18 18 18 18 18 17 17 17 17 17 17 17 17 17 17 17 17 17 17 17 17 17 16 17 17 17 17 17 17 17 17 17 17 17 17
20 20 18 18 19 20 20 20 20 20 19 19 18 17 17 18 18 18 18 17 17 17 17 17 17 17 17 17 16 16 16 17 16 16 16 16 16 16 16 16 16 17 17 17 16 17 17 17 17
21 18 17 18 19 20 20 21 20 20 19 19 18 17 17 18 18 18 17 17 17 17 17 17 17 17 16 16 16 16 16 16 16 16 16 16 16 16 16 16 16 16 16 16 16 16 16 16 16
20 17 18 19 19 20 21 21 20 19 19 19 19 17 17 18 18 17 17 17 17 17 17 17 17 16 16 16 16 16 16 16 16 16 16 16 16 16 16 16 16 16 16 16 16 16 16 16 16
21 17 18 18 19 20 21 21 21 20 19 19 19 18 18 18 18 17 17 17 17 17 17 17 17 16 16 16 16 16 16 16 16 16 16 16 16 16 16 16 16 16 16 16 16 16 16 16 16
21 17 18 19 19 20 21 21 21 20 20 19 19 19 19 18 18 17 17 17 17 17 17 17 16 16 16 16 16 16 16 16 16 16 16 16 16 16 16 15 15 16 16 16 16 16 16 16 16
20 18 20 20 20 20 21 21 21 20 19 19 19 19 19 18 18 18 17 17 17 17 17 17 17 16 16 16 16 16 16 16 16 16 16 15 15 15 15 15 15 15 15 15 15 15 16 16 16
20 19 20 21 21 21 21 21 21 20 19 19 19 19 19 18 18 18 18 18 17 17 17 17 17 16 16 16 16 16 16 16 16 16 15 15 15 15 15 15 15 15 15 15 15 15 15 16 16
20 20 21 21 22 22 21 21 20 20 21 21 21 20 19 18 18 18 18 18 17 17 17 17 17 16 16 16 16 16 16 16 16 16 15 15 15 15 15 15 15 15 15 15 15 15 15 15 16
20 20 21 22 22 22 22 21 20 20 21 21 20 19 19 19 19 18 18 18 17 17 17 17 17 17 16 16 16 16 16 16 16 16 15 15 16 16 15 15 15 15 15 15 15 15 15 15 15
20 21 21 21 22 22 21 20 20 20 21 20 20 20 19 19 19 18 18 18 18 18 17 17 17 17 16 16 16 16 16 16 16 16 15 15 16 15 15 15 15 15 15 15 15 15 15 15 15
21 20 20 21 21 21 21 20 19 21 20 20 20 20 19 19 19 19 19 18 18 18 17 17 17 17 16 16 16 16 16 16 16 16 15 15 15 15 15 15 15 15 15 15 15 15 15 15 15
20 19 19 20 20 21 21 19 19 20 20 19 19 19 19 19 19 19 19 18 18 18 18 17 17 17 16 16 16 16 16 16 16 16 15 15 15 15 15 15 15 15 15 15 15 15 15 15 15
18 18 19 19 20 20 20 19 19 20 19 19 19 19 19 19 19 19 19 19 18 18 18 17 17 17 16 16 16 16 16 16 16 16 16 15 15 15 15 15 15 15 15 15 15 15 15 15 15
18 18 19 19 20 20 19 18 18 19 19 19 19 19 19 20 20 20 19 19 18 18 18 17 17 17 16 16 16 16 16 16 16 16 16 15 15 15 15 15 15 15 15 15 15 15 15 15 15
19 19 19 19 20 19 18 18 18 18 18 18 18 19 19 20 20 20 19 19 18 18 18 17 17 16 16 16 16 16 16 16 16 15 15 15 15 15 15 15 15 15 15 15 15 15 15 15 15
19 19 19 19 19 19 18 18 18 18 18 18 18 19 20 20 20 19 19 19 18 18 18 17 17 17 16 16 16 16 16 15 15 15 15 15 15 15 15 15 15 15 15 15 15 15 15 14 14
19 18 19 19 19 19 19 18 18 18 18 19 19 19 19 20 20 19 19 19 18 18 18 17 17 17 16 16 16 16 16 15 15 15 15 15 15 15 15 15 15 15 15 15 15 15 15 15 14
18 19 19 19 18 17 18 16 17 17 17 17 18 19 19 19 19 19 19 19 18 18 18 18 17 17 16 16 16 16 16 16 15 15 15 15 15 15 15 15 15 15 15 15 15 15 15 15 14
19 19 19 18 18 17 17 16 16 16 17 17 18 19 19 19 19 19 19 19 19 18 18 17 17 17 16 16 16 16 16 16 15 15 15 15 15 15 15 15 15 15 15 14 14 14 14 14 14
19 18 17 15 15 16 17 16 16 16 17 18 18 19 19 20 19 19 19 19 18 18 18 17 17 17 16 16 16 16 16 15 15 15 15 15 15 15 15 15 15 15 15 14 14 14 14 14 14
18 16 16 16 15 15 16 16 16 17 17 17 18 19 20 19 19 19 19 19 18 18 18 17 17 17 16 16 16 16 15 15 15 15 15 15 15 15 15 15 15 15 15 15 14 14 14 14 14
17 17 16 16 15 15 16 15 16 18 18 18 19 19 19 19 19 19 19 19 18 18 18 17 17 17 16 16 16 16 15 15 15 15 15 15 15 15 15 15 15 15 15 15 15 15 15 15 15
17 16 16 15 15 15 15 15 16 18 18 18 18 19 19 19 19 19 19 19 18 18 18 17 17 17 16 16 16 16 16 16 15 15 15 15 15 15 15 15 15 15 15 15 15 15 15 15 15
17 15 14 15 15 15 16 16 16 18 18 17 17 18 18 19 19 19 19 18 18 18 17 17 17 17 16 16 16 16 16 16 15 15 15 15 15 15 15 15 15 15 15 15 15 15 15 15 15
17 16 14 13 14 14 15 15 17 17 17 17 17 18 18 18 18 19 19 18 18 18 17 17 17 17 16 16 16 16 16 16 15 15 15 15 15 15 15 15 15 15 15 15 15 15 15 15 15
17 16 15 15 14 13 14 15 17 17 17 17 18 18 18 18 18 18 18 18 18 17 17 17 17 17 16 16 16 16 16 16 15 15 15 15 15 15 15 15 15 15 15 15 15 15 15 15 15
Wind_Speed
1 3 3 3 5 5 3 2 0 1 3 2 4 6 6 4 2 1 1 2 3 2 2 3 5 6 6 6 6 8 8 8 9 9 9 9 9 9 9 9 8 8 9 9 9 9 9 9 8
1 2 3 4 5 4 2 2 1 1 3 4 4 5 5 4 2 2 0 2 3 3 3 3 5 5 6 6 7 7 8 8 8 8 9 9 9 8 8 8 8 8 9 9 9 9 9 9 9
1 2 4 4 4 4 2 1 1 2 3 2 4 4 3 2 2 2 2 4 4 3 3 3 5 6 6 7 7 7 7 8 8 8 8 8 8 8 8 7 7 8 8 8 8 8 8 8 8
3 4 5 5 4 1 2 2 3 4 3 4 4 4 3 2 2 3 4 5 4 2 3 4 6 6 6 7 7 7 7 8 8 8 8 8 8 8 8 8 7 8 8 8 8 8 8 8 8
4 4 5 4 2 2 1 1 2 3 2 3 3 4 2 4 3 6 5 5 4 2 3 4 5 6 6 7 7 7 8 8 8 8 9 9 8 8 8 8 8 8 8 8 8 8 9 9 9
4 4 5 2 1 2 1 0 2 3 3 3 4 4 1 1 3 4 5 5 4 3 3 3 4 5 6 7 7 7 8 8 8 8 8 8 8 7 8 8 8 8 8 8 8 8 9 9 10
4 4 3 2 0 2 0 1 3 4 3 3 4 4 1 1 2 4 5 4 3 3 4 4 4 4 5 5 6 7 7 8 8 8 7 8 8 7 7 7 7 7 8 8 8 8 8 9 10
4 4 3 1 2 1 0 2 2 4 3 3 4 6 4 4 5 6 5 4 4 3 3 3 4 4 5 4 4 6 6 7 7 7 7 7 7 6 6 6 7 7 8 8 8 9 9 10 10
4 5 2 3 4 2 1 2 2 3 5 3 2 3 4 8 8 7 4 3 2 1 2 2 2 3 4 3 3 4 5 6 7 6 6 7 7 6 6 6 7 8 8 9 10 11 12 12 12
4 3 3 3 4 3 2 2 3 3 3 2 3 4 6 9 8 7 5 4 2 2 1 0 1 2 2 3 4 4 5 6 5 5 5 5 6 6 6 7 8 9 9 10 11 12 11 11 10
3 3 2 1 2 3 2 1 2 6 2 5 6 8 8 8 7 7 6 5 4 3 2 1 1 1 2 2 3 3 4 4 4 4 4 4 5 6 6 6 7 8 9 9 10 10 9 9 8
2 1 1 1 1 2 3 3 3 3 4 5 8 11 10 9 9 8 7 5 3 3 3 2 2 1 1 1 2 2 2 2 2 3 3 4 3 4 4 4 5 6 6 7 7 7 8 9 9
1 1 1 1 1 2 3 2 3 1 1 6 9 9 10 10 8 6 5 5 4 4 4 3 3 2 1 1 1 2 2 2 2 2 2 3 3 2 3 3 4 5 6 6 6 6 7 7 8
1 1 2 2 1 1 3 0 2 2 5 8 9 9 9 9 8 6 6 5 5 5 4 3 4 3 3 2 2 2 1 1 2 2 2 3 4 4 3 3 3 4 6 6 6 6 5 5 6
1 2 3 3 1 1 4 2 2 3 7 8 8 8 8 8 7 8 8 7 7 5 4 4 4 4 4 3 2 2 2 2 2 2 3 4 5 5 4 3 3 3 6 7 7 7 6 5 6
3 3 2 4 1 1 4 4 5 4 7 7 7 7 7 7 8 8 8 7 6 5 5 4 4 4 4 3 3 3 2 3 3 3 3 4 5 7 5 3 2 4 6 6 4 4 5 5 5
4 1 2 4 1 1 3 4 5 4 7 7 7 8 7 7 7 7 7 7 7 7 6 5 4 4 4 3 3 4 3 3 3 3 3 3 5 6 6 4 3 5 5 4 4 4 4 5 5
2 2 1 3 2 2 2 5 5 4 6 8 7 7 7 8 10 7 7 7 6 6 6 6 4 4 4 4 3 3 3 3 3 3 3 4 5 6 6 4 4 5 4 4 4 5 5 4 4
3 3 2 4 2 1 3 6 7 4 5 6 6 7 8 10 6 4 5 6 6 6 7 6 6 5 4 3 2 2 2 1 2 2 3 4 5 5 5 4 4 3 4 4 5 4 5 4 3
3 2 2 3 2 1 3 6 6 4 6 8 9 9 9 7 4 5 5 6 7 7 7 7 7 6 5 3 3 2 3 2 1 1 3 4 4 4 5 5 3 3 4 4 4 4 3 2 2
3 5 4 3 3 3 2 6 5 4 3 4 6 7 8 9 9 8 7 7 7 7 8 8 7 6 5 4 3 3 3 3 2 2 1 2 3 4 5 5 5 4 3 4 3 4 4 2 1
4 4 4 2 1 3 2 3 7 5 5 5 6 7 8 8 8 8 8 8 8 8 7 7 6 6 4 4 4 5 3 2 1 1 1 2 3 4 4 5 5 4 3 3 3 3 3 3 2
4 1 2 1 2 1 2 1 7 4 5 7 7 7 8 8 10 10 10 10 8 7 7 7 7 6 5 4 5 5 3 2 2 2 2 2 2 3 3 4 5 4 3 3 3 3 3 2 3
4 5 5 5 4 1 3 3 6 4 6 6 5 5 5 7 8 8 8 7 7 6 7 7 7 5 5 5 5 5 5 5 4 3 2 2 1 1 2 4 4 3 3 3 3 3 3 2 3
5 5 3 3 2 4 3 3 7 7 6 6 6 6 4 5 6 7 8 8 9 9 9 8 8 6 5 5 5 5 5 6 5 4 3 3 1 1 1 2 3 2 3 3 3 3 2 2 3
4 7 7 4 4 4 2 4 7 6 5 4 4 4 2 3 5 7 9 10 10 11 10 9 9 7 6 6 5 4 5 4 3 4 3 3 2 2 2 3 3 3 3 3 3 2 2 2 3
5 3 5 5 2 1 5 6 8 3 4 3 3 1 2 3 4 6 7 8 9 10 11 11 10 8 7 7 5 4 4 4 4 4 3 3 2 2 3 3 3 3 3 4 4 3 3 3 3
6 8 5 5 3 3 5 4 5 6 6 5 3 3 3 2 3 4 6 7 8 9 8 8 8 7 6 6 6 5 4 4 4 4 4 3 2 3 4 3 3 3 3 4 4 3 3 4 3
3 4 5 4 4 4 3 6 6 7 6 5 5 4 3 3 4 5 5 6 7 7 8 8 7 6 6 6 5 5 4 4 4 4 4 3 3 3 4 4 4 4 4 4 4 3 3 4 3
4 6 7 5 4 4 3 7 6 5 5 4 4 3 2 3 3 4 5 6 7 7 7 7 7 7 7 7 6 5 5 5 5 4 4 4 4 3 4 4 4 4 4 4 4 4 3 3 3
Wind_Direction
28 80 84 58 54 53 53 3 245 24 50 42 64 79 89 83 78 128 279 136 135 123 129 134 121 114 113 113 113 111 109 108 108 107 106 102 99 96 93 90 87 83 79 77 76 76 75 75 77
102 91 59 58 78 73 0 323 38 83 142 142 75 71 76 69 69 100 75 144 129 127 122 122 117 114 113 111 110 112 110 106 107 106 103 98 97 95 93 89 85 80 76 75 74 75 78 76 76
114 61 76 68 86 136 162 252 137 86 103 95 74 57 76 94 113 155 191 137 118 112 112 120 119 114 108 104 106 108 108 106 107 108 104 99 97 96 94 88 84 79 75 73 72 72 75 76 78
85 47 55 67 72 213 190 200 154 121 78 57 93 71 58 23 164 160 133 124 118 104 102 117 119 114 107 105 105 104 104 103 103 105 103 99 95 94 92 88 86 82 77 72 73 72 73 73 76
63 72 59 51 25 339 283 185 148 110 75 57 93 94 40 357 92 117 120 122 123 106 92 109 115 112 108 105 105 105 104 100 101 103 100 96 92 90 88 87 86 84 80 75 74 72 72 73 76
56 66 80 79 355 342 328 160 110 90 95 94 102 105 63 23 110 122 114 111 109 101 76 81 95 105 109 108 106 106 105 99 98 100 97 95 90 88 87 84 82 81 77 75 74 72 71 72 76
99 91 114 134 52 346 11 106 120 118 116 146 134 113 123 182 145 111 99 91 83 73 64 46 55 70 88 100 105 105 104 98 99 99 95 91 88 85 86 83 80 79 77 76 77 74 75 80 81
118 99 90 130 157 252 264 88 111 126 130 119 121 138 182 192 130 102 83 72 67 59 56 47 48 54 57 61 90 100 102 100 97 93 90 87 80 75 73 73 75 76 76 76 77 76 78 81 83
90 77 127 193 182 210 178 99 75 80 103 91 98 154 169 134 122 112 98 72 56 61 27 36 39 49 57 58 78 82 86 87 85 79 75 70 62 55 53 62 66 73 75 75 74 73 74 74 75
85 114 203 207 187 178 169 140 144 109 98 93 77 80 114 128 136 144 157 169 187 219 253 306 39 47 52 66 69 63 63 69 71 68 65 59 56 52 52 53 62 65 67 70 70 70 71 70 68
116 161 217 243 190 157 146 130 131 134 181 193 170 154 143 145 155 167 180 188 200 210 225 213 192 67 56 55 65 61 64 63 60 70 77 71 61 54 51 51 52 55 60 64 65 64 67 72 75
112 259 207 245 150 141 154 146 135 171 219 189 165 155 156 165 177 185 190 194 196 200 220 209 172 132 85 87 80 75 66 62 55 70 89 84 68 57 58 58 57 60 65 70 70 71 71 74 76
117 292 302 265 98 137 124 139 150 212 159 126 133 145 164 177 188 194 194 189 186 199 214 200 171 165 155 121 99 93 68 68 77 79 86 99 93 78 78 68 66 65 69 75 76 76 72 72 73
214 242 312 341 7 157 138 150 120 216 138 135 149 168 183 187 186 184 187 193 195 200 204 178 169 168 153 140 127 104 85 79 87 87 98 118 114 108 95 80 70 71 77 82 85 84 79 72 72
84 48 359 340 330 182 118 343 245 199 146 156 175 187 194 200 194 198 198 194 194 194 186 172 174 155 151 148 139 116 111 113 100 89 96 113 124 120 107 91 80 86 91 91 87 82 79 75 69
54 55 353 309 350 125 126 254 268 173 159 179 193 202 206 214 211 210 202 194 187 181 176 176 171 148 147 137 123 110 103 95 92 96 98 112 130 129 115 103 93 101 101 97 91 83 80 73 70
38 77 270 306 302 131 149 245 271 176 176 195 204 210 216 224 228 215 201 192 183 179 171 163 151 142 140 122 104 96 89 81 85 97 102 115 123 124 120 113 111 107 99 93 98 84 89 86 79
216 205 250 270 291 120 186 254 272 212 198 211 215 217 221 224 228 213 195 186 176 171 160 154 145 136 127 108 92 80 70 61 65 73 88 112 119 124 123 116 113 113 103 90 91 94 78 85 85
168 167 229 260 265 167 239 260 268 238 214 224 225 221 226 231 233 197 183 172 165 163 160 161 157 153 139 128 124 113 104 72 57 52 79 108 122 130 126 118 111 109 110 114 113 104 91 77 82
168 184 250 289 310 190 260 278 275 234 220 221 219 217 220 227 213 188 177 172 176 176 173 170 170 166 165 158 148 138 127 109 92 45 65 85 113 132 137 126 120 117 111 109 112 114 106 81 62
199 198 221 248 346 15 341 320 306 286 258 244 231 219 214 212 207 195 186 184 179 182 181 178 173 164 162 151 122 97 76 62 51 47 49 49 96 112 124 133 132 130 124 130 132 132 127 128 58
232 221 203 211 70 306 17 300 297 293 297 266 247 230 221 213 203 194 188 186 187 188 178 169 164 158 153 149 146 148 147 152 174 162 107 64 79 101 121 132 135 133 128 133 145 132 126 130 130
205 142 140 151 154 328 352 220 289 314 291 278 264 243 228 211 200 195 193 190 186 176 167 161 154 154 157 156 157 154 152 157 136 115 98 75 60 83 111 125 126 127 128 136 130 122 121 126 141
134 78 57 49 73 304 257 194 282 262 248 274 276 262 236 211 201 196 186 173 167 160 158 156 154 159 160 156 158 163 165 159 145 141 134 111 77 63 97 118 125 132 134 139 139 131 126 126 124
99 99 41 4 5 259 264 204 251 257 249 247 261 266 248 205 189 185 178 175 170 170 171 167 162 165 163 157 165 174 175 173 168 167 160 145 119 100 144 130 132 136 146 146 139 121 121 125 125
160 144 156 192 225 279 305 240 256 266 276 268 262 260 226 186 186 190 189 183 178 176 173 169 171 171 168 165 172 175 176 176 174 169 163 165 169 180 166 143 143 140 142 140 131 111 109 106 111
140 153 161 139 156 272 281 291 303 292 320 330 336 325 231 204 192 193 189 183 177 177 178 175 174 174 175 172 164 164 171 177 170 163 160 166 170 163 152 144 136 133 130 128 122 109 102 103 93
145 141 108 126 158 252 289 280 262 280 288 304 313 286 260 224 200 193 184 180 176 173 171 171 173 175 173 169 169 174 175 178 162 150 156 159 160 141 136 129 123 118 117 121 116 110 106 100 87
118 118 121 127 154 166 254 271 233 233 247 259 266 259 239 210 205 198 182 170 163 159 163 170 174 170 171 173 173 165 169 167 157 158 171 168 158 143 139 140 134 129 127 123 120 117 115 105 88
167 161 151 161 204 181 190 267 272 245 249 251 267 263 248 213 192 178 164 155 159 165 171 176 177 177 181 175 169 169 167 163 163 169 171 163 157 146 141 137 132 133 130 128 130 129 122 117 112
Height
1509 1509 1509 1510 1513 1523 1526 1521 1518 1516 1517 1517 1516 1516 1518 1521 1524 1529 1525 1523 1523 1524 1524 1524 1524 1524 1525 1525 1525 1526 1526 1526 1527 1528 1528 1528 1529 1529 1530 1530 1530 1531 1531 1531 1532 1532 1532 1532 1532
1509 1509 1511 1511 1520 1533 1529 1520 1518 1517 1517 1517 1518 1519 1520 1522 1523 1524 1523 1524 1524 1524 1525 1525 1525 1525 1525 1525 1525 1526 1527 1527 1528 1528 1529 1529 1530 1530 1530 1531 1531 1531 1531 1532 1532 1532 1532 1533 1533
1510 1510 1512 1514 1524 1531 1526 1519 1517 1517 1518 1518 1519 1520 1522 1523 1524 1524 1525 1525 1525 1525 1525 1525 1526 1526 1526 1526 1526 1527 1527 1528 1528 1529 1529 1530 1530 1531 1531 1531 1532 1532 1532 1532 1533 1533 1533 1534 1534
1511 1512 1513 1520 1525 1523 1520 1518 1517 1517 1518 1519 1520 1522 1523 1525 1525 1526 1526 1526 1526 1526 1526 1526 1526 1526 1527 1527 1527 1527 1528 1528 1529 1529 1530 1530 1531 1531 1531 1532 1532 1532 1532 1533 1533 1534 1534 1534 1535
1511 1512 1519 1526 1524 1520 1517 1517 1517 1517 1519 1520 1520 1523 1524 1525 1526 1526 1526 1527 1527 1527 1527 1527 1527 1527 1527 1527 1528 1528 1529 1529 1529 1530 1530 1531 1531 1532 1532 1532 1533 1533 1533 1533 1534 1534 1535 1535 1536
1512 1514 1527 1532 1525 1520 1518 1517 1518 1518 1520 1521 1521 1523 1525 1526 1526 1527 1527 1528 1528 1528 1528 1528 1528 1528 1528 1528 1529 1529 1530 1530 1531 1531 1532 1532 1532 1533 1533 1534 1534 1534 1534 1534 1535 1535 1536 1536 1537
1514 1519 1527 1528 1527 1522 1519 1518 1518 1519 1520 1522 1522 1524 1526 1526 1527 1528 1528 1529 1529 1529 1529 1529 1529 1529 1529 1530 1530 1531 1531 1532 1532 1533 1533 1533 1534 1534 1535 1535 1535 1535 1536 1536 1536 1537 1537 1538 1538
1513 1518 1525 1527 1526 1523 1519 1519 1519 1520 1521 1522 1523 1524 1525 1527 1527 1529 1529 1530 1530 1530 1530 1530 1530 1531 1531 1531 1532 1532 1533 1533 1533 1534 1534 1535 1535 1536 1536 1537 1537 1537 1537 1537 1537 1538 1538 1539 1539
1514 1523 1529 1525 1524 1521 1518 1519 1520 1521 1522 1523 1523 1524 1525 1526 1527 1529 1530 1531 1531 1531 1531 1531 1532 1532 1532 1532 1533 1533 1534 1535 1535 1536 1536 1537 1537 1537 1538 1538 1538 1538 1538 1538 1539 1539 1540 1540 1540
1515 1525 1522 1518 1518 1518 1518 1519 1520 1522 1522 1523 1523 1524 1525 1526 1528 1529 1530 1531 1531 1532 1532 1532 1533 1533 1534 1534 1534 1535 1535 1536 1537 1537 1538 1538 1539 1539 1539 1540 1540 1540 1540 1540 1540 1541 1541 1542 1542
1515 1519 1517 1516 1516 1517 1518 1519 1520 1521 1523 1522 1522 1524 1525 1527 1528 1529 1530 1531 1532 1533 1533 1534 1534 1534 1535 1536 1536 1536 1537 1537 1538 1539 1539 1540 1540 1541 1541 1541 1541 1542 1542 1542 1542 1543 1543 1543 1544
1516 1516 1516 1515 1516 1516 1517 1518 1520 1520 1521 1521 1522 1523 1525 1527 1528 1529 1530 1532 1533 1533 1534 1535 1535 1536 1536 1537 1537 1538 1538 1539 1539 1540 1541 1541 1542 1542 1543 1543 1543 1543 1544 1544 1544 1544 1545 1545 1545
1516 1516 1515 1515 1516 1516 1517 1518 1519 1520 1520 1521 1523 1524 1525 1526 1528 1529 1531 1532 1533 1534 1535 1535 1536 1537 1537 1538 1539 1539 1540 1540 1541 1541 1542 1543 1543 1544 1544 1544 1545 1545 1545 1545 1546 1546 1546 1546 1546
1516 1516 1516 1516 1516 1516 1517 1519 1519 1519 1520 1521 1522 1524 1525 1526 1528 1529 1530 1532 1533 1534 1535 1536 1537 1538 1538 1539 1540 1540 1541 1541 1542 1543 1543 1544 1545 1545 1546 1546 1546 1546 1547 1547 1547 1547 1547 1548 1548
1515 1517 1517 1516 1516 1516 1518 1521 1519 1518 1520 1521 1522 1523 1525 1526 1528 1528 1530 1531 1533 1534 1535 1536 1537 1538 1539 1540 1540 1541 1542 1542 1543 1544 1544 1545 1546 1546 1547 1547 1548 1548 1548 1548 1549 1549 1549 1549 1550
1517 1521 1526 1519 1516 1516 1521 1527 1518 1518 1519 1520 1522 1523 1524 1525 1527 1528 1530 1531 1533 1534 1535 1537 1538 1538 1539 1540 1541 1542 1543 1543 1544 1545 1545 1546 1547 1547 1548 1549 1549 1549 1550 1550 1550 1551 1551 1551 1551
1525 1530 1529 1523 1517 1517 1520 1524 1518 1518 1519 1519 1520 1521 1523 1524 1526 1527 1529 1531 1532 1534 1535 1537 1538 1539 1540 1541 1542 1542 1543 1544 1544 1545 1546 1547 1548 1548 1549 1550 1550 1550 1551 1551 1552 1552 1552 1552 1553
1531 1530 1528 1526 1519 1518 1521 1522 1517 1517 1517 1518 1519 1520 1521 1522 1524 1525 1528 1530 1532 1534 1535 1537 1538 1539 1540 1541 1542 1543 1543 1544 1545 1546 1547 1548 1548 1549 1550 1550 1551 1552 1552 1552 1553 1553 1553 1554 1554
1523 1526 1528 1524 1518 1520 1521 1521 1517 1515 1516 1516 1517 1518 1519 1520 1522 1524 1526 1528 1530 1532 1534 1536 1537 1539 1540 1541 1542 1543 1544 1545 1545 1546 1547 1548 1549 1549 1550 1551 1552 1552 1553 1553 1554 1554 1554 1555 1555
1522 1526 1526 1522 1517 1519 1521 1520 1515 1514 1513 1513 1514 1514 1516 1518 1520 1522 1524 1526 1528 1530 1533 1535 1537 1538 1540 1541 1542 1543 1544 1545 1546 1547 1547 1548 1549 1550 1551 1551 1552 1553 1553 1554 1554 1555 1555 1555 1556
1522 1525 1525 1524 1520 1519 1522 1524 1517 1512 1511 1511 1511 1512 1513 1515 1516 1519 1521 1524 1526 1529 1531 1534 1536 1538 1540 1541 1543 1544 1544 1545 1546 1547 1548 1548 1549 1550 1551 1552 1552 1553 1554 1554 1555 1555 1556 1556 1556
1524 1517 1519 1521 1528 1533 1528 1539 1522 1515 1512 1509 1508 1509 1510 1511 1514 1516 1519 1521 1524 1527 1530 1533 1535 1537 1539 1541 1542 1543 1544 1545 1546 1547 1548 1549 1549 1550 1551 1552 1553 1553 1554 1555 1555 1556 1556 1556 1557
1516 1515 1518 1521 1527 1534 1531 1537 1528 1517 1514 1508 1506 1505 1506 1508 1510 1512 1515 1519 1522 1526 1529 1531 1534 1536 1538 1540 1542 1543 1544 1545 1546 1547 1548 1549 1550 1550 1551 1552 1553 1554 1554 1555 1555 1556 1556 1557 1557
1512 1518 1523 1528 1533 1543 1534 1537 1533 1520 1512 1506 1503 1503 1503 1505 1507 1510 1514 1517 1521 1524 1527 1530 1532 1535 1537 1539 1540 1542 1544 1545 1546 1547 1548 1549 1550 1550 1551 1552 1553 1554 1555 1555 1556 1556 1557 1557 1557
1514 1527 1542 1544 1550 1546 1532 1534 1528 1510 1505 1503 1502 1501 1501 1503 1505 1507 1511 1514 1518 1521 1525 1528 1530 1533 1535 1537 1539 1541 1543 1544 1545 1547 1548 1549 1550 1551 1552 1552 1553 1554 1555 1556 1556 1556 1557 1557 1557
1516 1523 1541 1549 1551 1545 1533 1534 1518 1504 1501 1500 1500 1499 1500 1501 1503 1505 1508 1511 1515 1518 1522 1525 1528 1531 1534 1536 1538 1540 1542 1544 1545 1547 1548 1549 1550 1551 1552 1553 1554 1554 1555 1556 1556 1557 1557 1557 1558
1516 1522 1523 1537 1541 1545 1538 1528 1513 1501 1500 1499 1498 1498 1499 1500 1502 1504 1507 1510 1513 1516 1520 1523 1527 1530 1532 1535 1537 1539 1541 1543 1545 1546 1548 1549 1550 1551 1552 1553 1554 1555 1555 1556 1557 1557 1557 1558 1558
1508 1516 1528 1536 1546 1549 1539 1531 1523 1507 1503 1499 1499 1498 1498 1500 1501 1503 1505 1508 1511 1515 1519 1522 1526 1528 1531 1534 1536 1538 1540 1543 1544 1546 1548 1549 1550 1551 1553 1553 1554 1555 1556 1556 1557 1557 1558 1558 1558
1513 1517 1524 1533 1536 1545 1545 1534 1507 1503 1500 1499 1498 1497 1498 1499 1500 1501 1503 1506 1510 1514 1517 1520 1524 1527 1530 1532 1535 1537 1539 1542 1544 1545 1547 1549 1550 1551 1552 1554 1555 1555 1556 1557 1557 1558 1558 1558 1558
1506 1511 1519 1530 1535 1537 1540 1530 1499 1498 1497 1497 1496 1497 1497 1498 1499 1500 1503 1505 1509 1512 1516 1519 1522 1525 1528 1531 1533 1536 1538 1541 1542 1544 1546 1548 1550 1551 1552 1553 1554 1555 1556 1557 1557 1558 1558 1558 1558